Regional Weather Roundup
Issued by NWS

Home | Current Version | Previous Version | Graphics & Text | Print | Product List | Glossary On
Versions: 1 2 3 4 5 6 7 8 9 10 11 12 13 14 15 16 17 18 19 20 21 22 23 24 25 26 27 28 29 30 31 32 33 34 35 36 37 38 39 40 41 42 43 44 45 46 47 48 49 50
000
ASUS43 KFSD 172010
RWRSD

WEATHER ROUNDUP FOR SOUTH DAKOTA
NATIONAL WEATHER SERVICE SIOUX FALLS SD
200 PM CST TUE JAN 17 2017

NOTE: "FAIR" INDICATES FEW OR NO CLOUDS BELOW 12,000 FEET WITH NO
SIGNIFICANT WEATHER AND/OR OBSTRUCTIONS TO VISIBILITY.


SDZ001>005-009-010-012>017-172100-
NORTHWEST AND NORTH CENTRAL SOUTH DAKOTA

CITY           SKY/WX    TMP DP  RH WIND       PRES   REMARKS
BUFFALO          N/A     34  21  59 W16       29.76F WCI  24
FAITH            N/A     21  15  78 S7        29.86F WCI  12
MOBRIDGE       CLOUDY    18  10  71 SE12      29.87F WCI   5
$$

SDZ012>016-024>037-041>051-057-063-072>074-172100-
SOUTHWEST AND SOUTH CENTRAL SOUTH DAKOTA

CITY           SKY/WX    TMP DP  RH WIND       PRES   REMARKS
RAPID CTY ARPT SUNNY     31  20  63 CALM      29.88F
PIERRE         CLOUDY    23  15  71 S6        29.93F WCI  16
CUSTER         SUNNY     48  10  21 SW5       29.88F
ELLSWORTH AFB  SUNNY     35  22  59 W5        29.87F
PHILIP         CLOUDY    30  18  60 W5        29.91F WCI  25
PINE RIDGE     CLOUDY    35  17  47 W3        29.94F
SPEARFISH      FAIR      50  18  27 W8        29.87F
WINNER         FAIR      49  22  34 SW9       29.95F
$$

SDZ004>011-016>023-039-040-172100-
NORTHEAST SOUTH DAKOTA

CITY           SKY/WX    TMP DP  RH WIND       PRES   REMARKS
ABERDEEN       CLOUDY    18  10  71 S12       29.96F WCI   5
WATERTOWN      CLOUDY    19  16  88 SW7       29.95F WCI  10
BROOKINGS      SUNNY     26  20  77 W8        29.97F WCI  18
SISSETON         N/A     28  23  81 S7        29.93F WCI  21
$$

SDZ017-020-022-023-036>040-048>070-172100-
SOUTHEAST SOUTH DAKOTA

CITY           SKY/WX    TMP DP  RH WIND       PRES   REMARKS
SIOUX FALLS    SUNNY     30  22  72 W8        30.01F WCI  22
HURON          CLOUDY    26  18  71 S7        29.99F WCI  18
CHAMBERLAIN    SUNNY     37  22  54 S3        29.97F
MITCHELL       SUNNY     34  24  67 W6        30.02F WCI  29
YANKTON        SUNNY     30  27  86 CALM      30.04S
$$

ABBREVIATIONS USED IN REMARKS
   TC - TEMPERATURE IN CELSIUS
  WCI - WIND CHILL INDEX
   HX - HEAT INDEX
  VSB - VISIBILITY





USA.gov is the U.S. government's official web portal to all federal, state and local government web resources and services.